,,,PA_Meas_PMT16A,,PR_Meas_QMR101_102,,RH_Meas_QMH101,,SR_Meas_QMS101,,TA_Meas_QMH101,,GenWind,,GenWind,
date,time,status,PA,status,PR,status,RH,status,SR,status,TA,status,DirAvg,status,SpdAvg,
2009-09-08, 00:00:04,VALID,1009.43,VALID,0,VALID,96.992,VALID,0,VALID,23.6356,VALID,80,VALID,0,
2009-09-08, 00:01:04,VALID,1009.42,VALID,0,VALID,96.9996,VALID,0,VALID,23.6161,VALID,80,VALID,0,
2009-09-08, 00:02:04,VALID,1009.4,VALID,0,VALID,97.0225,VALID,0,VALID,23.6356,VALID,80,VALID,0,
2009-09-08, 00:03:04,VALID,1009.37,VALID,0,VALID,97.0301,VALID,0,VALID,23.6356,VALID,80,VALID,0,
2009-09-08, 00:04:04,VALID,1009.35,VALID,0,VALID,97.0148,VALID,0,VALID,23.6161,VALID,80,VALID,0,
2009-09-08, 00:05:04,VALID,1009.35,VALID,0,VALID,97.0301,VALID,0,VALID,23.6161,VALID,80,VALID,0,
2009-09-08, 00:06:04,VALID,1009.35,VALID,0,VALID,97.0377,VALID,0,VALID,23.5966,VALID,80,VALID,0,
2009-09-08, 00:07:04,VALID,1009.31,VALID,0,VALID,97.0377,VALID,0,VALID,23.6161,VALID,80,VALID,0,
2009-09-08, 00:08:04,VALID,1009.36,VALID,0,VALID,97.053,VALID,0,VALID,23.5966,VALID,80,VALID,0,
2009-09-08, 00:09:04,VALID,1009.34,VALID,0,VALID,97.0682,VALID,0,VALID,23.5753,VALID,80,VALID,0,
2009-09-08, 00:10:04,VALID,1009.36,VALID,0,VALID,97.0606,VALID,0,VALID,23.5966,VALID,80,VALID,0,
2009-09-08, 00:11:04,VALID,1009.34,VALID,0,VALID,97.053,VALID,0,VALID,23.5771,VALID,80,VALID,0,
2009-09-08, 00:12:04,VALID,1009.35,VALID,0,VALID,97.0758,VALID,0,VALID,23.5771,VALID,80,VALID,0,
2009-09-08, 00:13:04,VALID,1009.33,VALID,0,VALID,97.0682,VALID,0,VALID,23.5771,VALID,80,VALID,0,
2009-09-08, 00:14:04,VALID,1009.32,VALID,0,VALID,97.0682,VALID,0,VALID,23.5771,VALID,80,VALID,0,
2009-09-08, 00:15:04,VALID,1009.33,VALID,0,VALID,97.0911,VALID,0,VALID,23.5771,VALID,80,VALID,0,
2009-09-08, 00:16:04,VALID,1009.31,VALID,0,VALID,97.0758,VALID,0,VALID,23.5771,VALID,80,VALID,0,
2009-09-08, 00:17:04,VALID,1009.3,VALID,0,VALID,97.0911,VALID,0,VALID,23.5966,VALID,80,VALID,0,
2009-09-08, 00:18:04,VALID,1009.31,VALID,0,VALID,97.0835,VALID,0,VALID,23.5966,VALID,80,VALID,0,
2009-09-08, 00:19:04,VALID,1009.31,VALID,0,VALID,97.0911,VALID,0,VALID,23.6179,VALID,80,VALID,0,
2009-09-08, 00:20:04,VALID,1009.32,VALID,0,VALID,97.0987,VALID,0,VALID,23.5966,VALID,80,VALID,0,
2009-09-08, 00:21:04,VALID,1009.3,VALID,0,VALID,97.0911,VALID,0,VALID,23.5966,VALID,80,VALID,0,
2009-09-08, 00:22:04,VALID,1009.31,VALID,0,VALID,97.0987,VALID,0,VALID,23.6179,VALID,80,VALID,0,
2009-09-08, 00:23:04,VALID,1009.34,VALID,0,VALID,97.0987,VALID,0,VALID,23.5771,VALID,80,VALID,0,
2009-09-08, 00:24:04,VALID,1009.33,VALID,0,VALID,97.114,VALID,0,VALID,23.5984,VALID,80,VALID,0,
2009-09-08, 00:25:04,VALID,1009.34,VALID,0,VALID,97.114,VALID,0,VALID,23.5771,VALID,80,VALID,0,
2009-09-08, 00:26:04,VALID,1009.34,VALID,0,VALID,97.1216,VALID,0,VALID,23.5984,VALID,80,VALID,0,
2009-09-08, 00:27:04,VALID,1009.32,VALID,0,VALID,97.1216,VALID,0,VALID,23.5771,VALID,80,VALID,0,
2009-09-08, 00:28:04,VALID,1009.31,VALID,0,VALID,97.114,VALID,0,VALID,23.5966,VALID,80,VALID,0,
2009-09-08, 00:29:04,VALID,1009.29,VALID,0,VALID,97.114,VALID,0,VALID,23.5966,VALID,80,VALID,0,
2009-09-08, 00:30:04,VALID,1009.29,VALID,0,VALID,97.1292,VALID,0,VALID,23.6161,VALID,80,VALID,0,
2009-09-08, 00:31:04,VALID,1009.26,VALID,0,VALID,97.1292,VALID,0,VALID,23.5966,VALID,80,VALID,0,
2009-09-08, 00:32:04,VALID,1009.28,VALID,0,VALID,97.1445,VALID,0,VALID,23.6161,VALID,60,VALID,0,
2009-09-08, 00:33:04,VALID,1009.28,VALID,0,VALID,97.1292,VALID,0,VALID,23.6179,VALID,56,VALID,0,
2009-09-08, 00:34:04,VALID,1009.25,VALID,0,VALID,97.1445,VALID,0,VALID,23.5966,VALID,56,VALID,0,
2009-09-08, 00:35:04,VALID,1009.22,VALID,0,VALID,97.1445,VALID,0,VALID,23.5771,VALID,56,VALID,0,
2009-09-08, 00:36:04,VALID,1009.21,VALID,0,VALID,97.1445,VALID,0,VALID,23.5984,VALID,56,VALID,0,
2009-09-08, 00:37:04,VALID,1009.2,VALID,0,VALID,97.1292,VALID,0,VALID,23.6179,VALID,56,VALID,0,
2009-09-08, 00:38:04,VALID,1009.19,VALID,0,VALID,97.1368,VALID,0,VALID,23.6179,VALID,56,VALID,0,
2009-09-08, 00:39:04,VALID,1009.14,VALID,0,VALID,97.1292,VALID,0,VALID,23.6161,VALID,56,VALID,0,
2009-09-08, 00:40:04,VALID,1009.14,VALID,0,VALID,97.1445,VALID,0,VALID,23.6373,VALID,56,VALID,0,
2009-09-08, 00:41:04,VALID,1009.11,VALID,0,VALID,97.1368,VALID,0,VALID,23.6161,VALID,56,VALID,0,
2009-09-08, 00:42:04,VALID,1009.11,VALID,0,VALID,97.1292,VALID,0,VALID,23.6161,VALID,56,VALID,0,
2009-09-08, 00:43:04,VALID,1009.1,VALID,0,VALID,97.1445,VALID,0,VALID,23.6161,VALID,56,VALID,0,
2009-09-08, 00:44:04,VALID,1009.07,VALID,0,VALID,97.1368,VALID,0,VALID,23.6373,VALID,56,VALID,0,
2009-09-08, 00:45:04,VALID,1009.07,VALID,0,VALID,97.1368,VALID,0,VALID,23.6373,VALID,56,VALID,0,
2009-09-08, 00:46:04,VALID,1009.08,VALID,0,VALID,97.1445,VALID,0,VALID,23.6161,VALID,56,VALID,0,
2009-09-08, 00:47:04,VALID,1009.06,VALID,0,VALID,97.1445,VALID,0,VALID,23.5771,VALID,56,VALID,0,
2009-09-08, 00:48:04,VALID,1009.03,VALID,0,VALID,97.1597,VALID,0,VALID,23.5771,VALID,56,VALID,0,
2009-09-08, 00:49:04,VALID,1009.04,VALID,0,VALID,97.1521,VALID,0,VALID,23.5771,VALID,56,VALID,0,
2009-09-08, 00:50:04,VALID,1009.04,VALID,0,VALID,97.1368,VALID,0,VALID,23.5984,VALID,56,VALID,0,
2009-09-08, 00:51:04,VALID,1009.03,VALID,0,VALID,97.1368,VALID,0,VALID,23.5381,VALID,56,VALID,0,
2009-09-08, 00:52:04,VALID,1009.02,VALID,0,VALID,97.1368,VALID,0,VALID,23.5381,VALID,56,VALID,0,
2009-09-08, 00:53:04,VALID,1009.06,VALID,0,VALID,97.1368,VALID,0,VALID,23.5381,VALID,56,VALID,0,
2009-09-08, 00:54:04,VALID,1009.04,VALID,0,VALID,97.1368,VALID,0,VALID,23.5381,VALID,56,VALID,0,
2009-09-08, 00:55:04,VALID,1009.01,VALID,0,VALID,97.1445,VALID,0,VALID,23.5789,VALID,56,VALID,0,
2009-09-08, 00:56:04,VALID,1009.04,VALID,0,VALID,97.1368,VALID,0,VALID,23.5381,VALID,56,VALID,0,
2009-09-08, 00:57:04,VALID,1009.01,VALID,0,VALID,97.1521,VALID,0,VALID,23.5186,VALID,56,VALID,0,
2009-09-08, 00:58:04,VALID,1008.99,VALID,0,VALID,97.1597,VALID,0,VALID,23.4797,VALID,56,VALID,0,
2009-09-08, 00:59:04,VALID,1008.94,VALID,0,VALID,97.1597,VALID,0,VALID,23.4425,VALID,56,VALID,0,
2009-09-08, 01:00:04,VALID,1008.95,VALID,0,VALID,97.1521,VALID,0,VALID,23.4017,VALID,56,VALID,0,
2009-09-08, 01:01:04,VALID,1008.93,VALID,0,VALID,97.1521,VALID,0,VALID,23.3628,VALID,56,VALID,0,
2009-09-08, 01:02:04,VALID,1008.91,VALID,0,VALID,97.1368,VALID,0,VALID,23.3238,VALID,56,VALID,0,
2009-09-08, 01:03:04,VALID,1008.91,VALID,0,VALID,97.1368,VALID,0,VALID,23.3238,VALID,56,VALID,0,
2009-09-08, 01:04:04,VALID,1008.91,VALID,0,VALID,97.1292,VALID,0,VALID,23.3645,VALID,56,VALID,0,
2009-09-08, 01:05:04,VALID,1008.9,VALID,0,VALID,97.1368,VALID,0,VALID,23.3628,VALID,56,VALID,0,
2009-09-08, 01:06:04,VALID,1008.89,VALID,0,VALID,97.1445,VALID,0,VALID,23.3433,VALID,56,VALID,0,
2009-09-08, 01:07:04,VALID,1008.85,VALID,0,VALID,97.1445,VALID,0,VALID,23.3415,VALID,56,VALID,0,
2009-09-08, 01:08:04,VALID,1008.82,VALID,0,VALID,97.1521,VALID,0.105969,VALID,23.3628,VALID,56,VALID,0,
2009-09-08, 01:09:04,VALID,1008.82,VALID,0,VALID,97.1597,VALID,0.105969,VALID,23.322,VALID,56,VALID,0,
2009-09-08, 01:10:04,VALID,1008.81,VALID,0,VALID,97.1597,VALID,0.105969,VALID,23.3026,VALID,56,VALID,0,
2009-09-08, 01:11:04,VALID,1008.82,VALID,0,VALID,97.1826,VALID,0.105969,VALID,23.3043,VALID,56,VALID,0,
2009-09-08, 01:12:04,VALID,1008.78,VALID,0,VALID,97.1597,VALID,0,VALID,23.2636,VALID,56,VALID,0,
2009-09-08, 01:13:04,VALID,1008.79,VALID,0,VALID,97.1674,VALID,0.105969,VALID,23.2636,VALID,56,VALID,0,
2009-09-08, 01:14:04,VALID,1008.77,VALID,0,VALID,97.1674,VALID,0.105969,VALID,23.2441,VALID,56,VALID,0,
2009-09-08, 01:15:04,VALID,1008.76,VALID,0,VALID,97.175,VALID,0.105969,VALID,23.2441,VALID,56,VALID,0,
2009-09-08, 01:16:04,VALID,1008.76,VALID,0,VALID,97.175,VALID,0,VALID,23.2848,VALID,56,VALID,0,
2009-09-08, 01:17:04,VALID,1008.77,VALID,0,VALID,97.1826,VALID,0.105969,VALID,23.2831,VALID,56,VALID,0,
2009-09-08, 01:18:04,VALID,1008.74,VALID,0,VALID,97.1902,VALID,0.105969,VALID,23.2831,VALID,56,VALID,0,
2009-09-08, 01:19:04,VALID,1008.73,VALID,0,VALID,97.1902,VALID,0,VALID,23.3026,VALID,56,VALID,0,
2009-09-08, 01:20:04,VALID,1008.72,VALID,0,VALID,97.2131,VALID,0.105969,VALID,23.3026,VALID,56,VALID,0,
2009-09-08, 01:21:04,VALID,1008.72,VALID,0,VALID,97.2055,VALID,0.105969,VALID,23.3026,VALID,56,VALID,0,
2009-09-08, 01:22:04,VALID,1008.69,VALID,0,VALID,97.2131,VALID,0,VALID,23.3043,VALID,56,VALID,0,
2009-09-08, 01:23:04,VALID,1008.71,VALID,0,VALID,97.2055,VALID,0,VALID,23.3238,VALID,56,VALID,0,
2009-09-08, 01:24:04,VALID,1008.67,VALID,0,VALID,97.2131,VALID,0,VALID,23.3628,VALID,56,VALID,0,
2009-09-08, 01:25:04,VALID,1008.68,VALID,0,VALID,97.2131,VALID,0,VALID,23.3823,VALID,56,VALID,0,
2009-09-08, 01:26:04,VALID,1008.65,VALID,0,VALID,97.2284,VALID,0,VALID,23.3823,VALID,56,VALID,0,
2009-09-08, 01:27:04,VALID,1008.64,VALID,0,VALID,97.2207,VALID,0,VALID,23.3823,VALID,56,VALID,0,
2009-09-08, 01:28:04,VALID,1008.63,VALID,0,VALID,97.236,VALID,0,VALID,23.3823,VALID,56,VALID,0,
2009-09-08, 01:29:04,VALID,1008.6,VALID,0,VALID,97.2436,VALID,0,VALID,23.384,VALID,56,VALID,0,
2009-09-08, 01:30:04,VALID,1008.61,VALID,0,VALID,97.2665,VALID,0,VALID,23.3238,VALID,56,VALID,0,
2009-09-08, 01:31:04,VALID,1008.6,VALID,0,VALID,97.2665,VALID,0,VALID,23.3043,VALID,56,VALID,0,
2009-09-08, 01:32:04,VALID,1008.62,VALID,0,VALID,97.2665,VALID,0,VALID,23.2848,VALID,56,VALID,0,
2009-09-08, 01:33:04,VALID,1008.6,VALID,0,VALID,97.2512,VALID,0,VALID,23.3043,VALID,56,VALID,0,
2009-09-08, 01:34:04,VALID,1008.59,VALID,0,VALID,97.2741,VALID,0,VALID,23.2831,VALID,56,VALID,0,
2009-09-08, 01:35:04,VALID,1008.6,VALID,0,VALID,97.2589,VALID,0,VALID,23.2459,VALID,56,VALID,0,
2009-09-08, 01:36:04,VALID,1008.59,VALID,0,VALID,97.2817,VALID,0,VALID,23.2264,VALID,56,VALID,0,
2009-09-08, 01:37:04,VALID,1008.59,VALID,0,VALID,97.297,VALID,0.105969,VALID,23.1857,VALID,56,VALID,0,
2009-09-08, 01:38:04,VALID,1008.6,VALID,0,VALID,97.297,VALID,0.105969,VALID,23.1467,VALID,56,VALID,0,
2009-09-08, 01:39:04,VALID,1008.56,VALID,0,VALID,97.2665,VALID,0,VALID,23.1485,VALID,56,VALID,0,
2009-09-08, 01:40:04,VALID,1008.58,VALID,0,VALID,97.2741,VALID,0,VALID,23.1485,VALID,56,VALID,0,
2009-09-08, 01:41:04,VALID,1008.58,VALID,0,VALID,97.2741,VALID,0,VALID,23.129,VALID,56,VALID,0,
2009-09-08, 01:42:04,VALID,1008.57,VALID,0,VALID,97.2741,VALID,0,VALID,23.1485,VALID,56,VALID,0,
2009-09-08, 01:43:04,VALID,1008.56,VALID,0,VALID,97.2741,VALID,0,VALID,23.1697,VALID,56,VALID,0,
2009-09-08, 01:44:04,VALID,1008.57,VALID,0,VALID,97.2589,VALID,0,VALID,23.1874,VALID,56,VALID,0,
2009-09-08, 01:45:04,VALID,1008.58,VALID,0,VALID,97.2589,VALID,0,VALID,23.2069,VALID,56,VALID,0,
2009-09-08, 01:46:04,VALID,1008.54,VALID,0,VALID,97.2512,VALID,0,VALID,23.2671,VALID,56,VALID,0,
2009-09-08, 01:47:04,VALID,1008.54,VALID,0,VALID,97.2589,VALID,0,VALID,23.2866,VALID,56,VALID,0,
2009-09-08, 01:48:04,VALID,1008.53,VALID,0,VALID,97.2665,VALID,0,VALID,23.2848,VALID,56,VALID,0,
2009-09-08, 01:49:04,VALID,1008.5,VALID,0,VALID,97.2436,VALID,0,VALID,23.3043,VALID,56,VALID,0,
2009-09-08, 01:50:04,VALID,1008.52,VALID,0,VALID,97.2512,VALID,0,VALID,23.3433,VALID,56,VALID,0,
2009-09-08, 01:51:04,VALID,1008.53,VALID,0,VALID,97.2436,VALID,0,VALID,23.3628,VALID,56,VALID,0,
2009-09-08, 01:52:04,VALID,1008.53,VALID,0,VALID,97.2665,VALID,0.105969,VALID,23.3823,VALID,56,VALID,0,
2009-09-08, 01:53:04,VALID,1008.57,VALID,0,VALID,97.297,VALID,0,VALID,23.3823,VALID,56,VALID,0,
2009-09-08, 01:54:04,VALID,1008.56,VALID,0,VALID,97.297,VALID,0,VALID,23.3628,VALID,56,VALID,0,
2009-09-08, 01:55:04,VALID,1008.54,VALID,0,VALID,97.297,VALID,0,VALID,23.3433,VALID,56,VALID,0,
2009-09-08, 01:56:04,VALID,1008.56,VALID,0,VALID,97.2894,VALID,0,VALID,23.3628,VALID,56,VALID,0,
2009-09-08, 01:57:04,VALID,1008.54,VALID,0,VALID,97.3046,VALID,0,VALID,23.3238,VALID,56,VALID,0,
2009-09-08, 01:58:04,VALID,1008.56,VALID,0,VALID,97.3046,VALID,0,VALID,23.3043,VALID,56,VALID,0,
2009-09-08, 01:59:04,VALID,1008.51,VALID,0,VALID,97.3275,VALID,0,VALID,23.2848,VALID,56,VALID,0,
2009-09-08, 02:00:04,VALID,1008.52,VALID,0,VALID,97.3199,VALID,0,VALID,23.2654,VALID,56,VALID,0,
2009-09-08, 02:01:04,VALID,1008.51,VALID,0,VALID,97.3351,VALID,0,VALID,23.2459,VALID,56,VALID,0,
2009-09-08, 02:02:04,VALID,1008.48,VALID,0,VALID,97.3275,VALID,0,VALID,23.2264,VALID,56,VALID,0,
2009-09-08, 02:03:04,VALID,1008.51,VALID,0,VALID,97.3046,VALID,0.105969,VALID,23.2459,VALID,56,VALID,0,
2009-09-08, 02:04:04,VALID,1008.47,VALID,0,VALID,97.3046,VALID,0,VALID,23.2459,VALID,56,VALID,0,
2009-09-08, 02:05:04,VALID,1008.48,VALID,0,VALID,97.3046,VALID,0,VALID,23.2654,VALID,56,VALID,0,
2009-09-08, 02:06:04,VALID,1008.5,VALID,0,VALID,97.3046,VALID,0,VALID,23.2459,VALID,56,VALID,0,
2009-09-08, 02:07:04,VALID,1008.51,VALID,0,VALID,97.3046,VALID,0,VALID,23.2264,VALID,56,VALID,0,
2009-09-08, 02:08:04,VALID,1008.51,VALID,0,VALID,97.3046,VALID,0,VALID,23.2671,VALID,56,VALID,0,
2009-09-08, 02:09:04,VALID,1008.5,VALID,0,VALID,97.3199,VALID,0,VALID,23.2264,VALID,56,VALID,0,
2009-09-08, 02:10:04,VALID,1008.52,VALID,0,VALID,97.3351,VALID,0,VALID,23.2069,VALID,56,VALID,0,
2009-09-08, 02:11:04,VALID,1008.52,VALID,0,VALID,97.3351,VALID,0,VALID,23.1874,VALID,56,VALID,0,
2009-09-08, 02:12:04,VALID,1008.53,VALID,0,VALID,97.3504,VALID,0,VALID,23.1679,VALID,56,VALID,0,
2009-09-08, 02:13:04,VALID,1008.52,VALID,0,VALID,97.3427,VALID,0,VALID,23.1485,VALID,56,VALID,0,
2009-09-08, 02:14:04,VALID,1008.52,VALID,0,VALID,97.3275,VALID,0,VALID,23.1697,VALID,56,VALID,0,
2009-09-08, 02:15:04,VALID,1008.49,VALID,0,VALID,97.3351,VALID,0,VALID,23.1485,VALID,56,VALID,0,
2009-09-08, 02:16:04,VALID,1008.52,VALID,0,VALID,97.3427,VALID,0,VALID,23.1095,VALID,56,VALID,0,
2009-09-08, 02:17:04,VALID,1008.48,VALID,0,VALID,97.3427,VALID,0,VALID,23.1095,VALID,56,VALID,0,
2009-09-08, 02:18:04,VALID,1008.51,VALID,0,VALID,97.3275,VALID,0,VALID,23.1307,VALID,56,VALID,0,
2009-09-08, 02:19:04,VALID,1008.52,VALID,0,VALID,97.3122,VALID,0,VALID,23.129,VALID,56,VALID,0,
2009-09-08, 02:20:04,VALID,1008.5,VALID,0,VALID,97.3199,VALID,0,VALID,23.129,VALID,56,VALID,0,
2009-09-08, 02:21:04,VALID,1008.52,VALID,0,VALID,97.3199,VALID,0,VALID,23.1485,VALID,56,VALID,0,
2009-09-08, 02:22:04,VALID,1008.54,VALID,0,VALID,97.3351,VALID,0,VALID,23.1485,VALID,56,VALID,0,
2009-09-08, 02:23:04,VALID,1008.49,VALID,0,VALID,97.3504,VALID,0,VALID,23.1679,VALID,56,VALID,0,
2009-09-08, 02:24:04,VALID,1008.49,VALID,0,VALID,97.3275,VALID,0,VALID,23.2087,VALID,56,VALID,0,
2009-09-08, 02:25:04,VALID,1008.46,VALID,0,VALID,97.3122,VALID,0,VALID,23.1874,VALID,56,VALID,0,
2009-09-08, 02:26:04,VALID,1008.44,VALID,0,VALID,97.3656,VALID,0,VALID,23.1679,VALID,56,VALID,0,
2009-09-08, 02:27:04,VALID,1008.43,VALID,0,VALID,97.358,VALID,0,VALID,23.129,VALID,56,VALID,0,
2009-09-08, 02:28:04,VALID,1008.42,VALID,0,VALID,97.358,VALID,0,VALID,23.1095,VALID,56,VALID,0,
2009-09-08, 02:29:04,VALID,1008.41,VALID,0,VALID,97.358,VALID,0,VALID,23.09,VALID,56,VALID,0,
2009-09-08, 02:30:04,VALID,1008.42,VALID,0,VALID,97.3656,VALID,0,VALID,23.0705,VALID,56,VALID,0,
2009-09-08, 02:31:04,VALID,1008.4,VALID,0,VALID,97.3885,VALID,0,VALID,23.0511,VALID,56,VALID,0,
2009-09-08, 02:32:04,VALID,1008.4,VALID,0,VALID,97.3809,VALID,0,VALID,23.0316,VALID,56,VALID,0,
2009-09-08, 02:33:04,VALID,1008.41,VALID,0,VALID,97.3809,VALID,0,VALID,23.0121,VALID,56,VALID,0,
2009-09-08, 02:34:04,VALID,1008.4,VALID,0,VALID,97.3732,VALID,0,VALID,22.9926,VALID,56,VALID,0,
2009-09-08, 02:35:05,VALID,1008.39,VALID,0,VALID,97.3656,VALID,0,VALID,22.9926,VALID,56,VALID,0,
2009-09-08, 02:36:05,VALID,1008.39,VALID,0,VALID,97.3885,VALID,0,VALID,22.9731,VALID,56,VALID,0,
2009-09-08, 02:37:05,VALID,1008.38,VALID,0,VALID,97.358,VALID,0.105969,VALID,22.9714,VALID,56,VALID,0,
2009-09-08, 02:38:05,VALID,1008.36,VALID,0,VALID,97.3656,VALID,0,VALID,22.9714,VALID,56,VALID,0,
2009-09-08, 02:39:05,VALID,1008.42,VALID,0,VALID,97.3809,VALID,0.105969,VALID,22.9731,VALID,56,VALID,0,
2009-09-08, 02:40:05,VALID,1008.42,VALID,0,VALID,97.4266,VALID,0.105969,VALID,22.9342,VALID,125,VALID,0.597656,
2009-09-08, 02:41:05,VALID,1008.42,VALID,0,VALID,97.3809,VALID,0.105969,VALID,22.9129,VALID,125,VALID,0.428125,
2009-09-08, 02:42:05,VALID,1008.45,VALID,0,VALID,97.3656,VALID,0.105969,VALID,22.9519,VALID,125,VALID,0.327344,
2009-09-08, 02:43:05,VALID,1008.47,VALID,0,VALID,97.3961,VALID,0.105969,VALID,22.9519,VALID,125,VALID,0.239453,
2009-09-08, 02:44:05,VALID,1008.47,VALID,0,VALID,97.4037,VALID,0.105969,VALID,22.9519,VALID,125,VALID,0.0953125,
2009-09-08, 02:45:05,VALID,1008.48,VALID,0,VALID,97.4037,VALID,0.105969,VALID,22.9536,VALID,125,VALID,0.01875,
2009-09-08, 02:46:05,VALID,1008.46,VALID,0,VALID,97.3961,VALID,0.105969,VALID,22.9519,VALID,125,VALID,0,
2009-09-08, 02:47:05,VALID,1008.47,VALID,0,VALID,97.3885,VALID,0.105969,VALID,22.9519,VALID,125,VALID,0,
2009-09-08, 02:48:05,VALID,1008.47,VALID,0,VALID,97.3885,VALID,0.105969,VALID,22.9909,VALID,125,VALID,0,
2009-09-08, 02:49:05,VALID,1008.44,VALID,0,VALID,97.3885,VALID,0.105969,VALID,22.9714,VALID,125,VALID,0,
2009-09-08, 02:50:05,VALID,1008.41,VALID,0,VALID,97.4266,VALID,0.105969,VALID,22.9731,VALID,133,VALID,0.501562,
2009-09-08, 02:51:05,VALID,1008.43,VALID,0,VALID,97.4724,VALID,0.105969,VALID,22.835,VALID,179,VALID,0.541016,
2009-09-08, 02:52:05,VALID,1008.39,VALID,0,VALID,97.48,VALID,0,VALID,22.7995,VALID,179,VALID,0.192969,
2009-09-08, 02:53:05,VALID,1008.42,VALID,0,VALID,97.4495,VALID,0,VALID,22.7606,VALID,179,VALID,0,
2009-09-08, 02:54:05,VALID,1008.38,VALID,0,VALID,97.4342,VALID,0,VALID,22.7394,VALID,179,VALID,0,
2009-09-08, 02:55:05,VALID,1008.39,VALID,0,VALID,97.4342,VALID,0,VALID,22.78,VALID,179,VALID,0,
2009-09-08, 02:56:05,VALID,1008.38,VALID,0,VALID,97.3961,VALID,0,VALID,22.8385,VALID,179,VALID,0,
2009-09-08, 02:57:05,VALID,1008.4,VALID,0,VALID,97.4342,VALID,0,VALID,22.8368,VALID,179,VALID,0.234766,
2009-09-08, 02:58:05,VALID,1008.37,VALID,0,VALID,97.3885,VALID,0,VALID,22.8969,VALID,179,VALID,0.197656,
2009-09-08, 02:59:05,VALID,1008.42,VALID,0,VALID,97.3961,VALID,0,VALID,22.9147,VALID,179,VALID,0.204688,
2009-09-08, 03:00:05,VALID,1008.43,VALID,0,VALID,97.4037,VALID,0,VALID,22.9342,VALID,179,VALID,0.0113281,
2009-09-08, 03:01:05,VALID,1008.44,VALID,0,VALID,97.4953,VALID,0,VALID,22.8173,VALID,179,VALID,0.6875,
2009-09-08, 03:02:05,VALID,1008.42,VALID,0,VALID,97.4724,VALID,0,VALID,22.819,VALID,179,VALID,0.461328,
2009-09-08, 03:03:05,VALID,1008.43,VALID,0,VALID,97.4724,VALID,0,VALID,22.7588,VALID,179,VALID,0.277344,
2009-09-08, 03:04:05,VALID,1008.44,VALID,0,VALID,97.4495,VALID,0,VALID,22.7588,VALID,179,VALID,0.159375,
2009-09-08, 03:05:05,VALID,1008.44,VALID,0,VALID,97.4419,VALID,0,VALID,22.78,VALID,179,VALID,0,
2009-09-08, 03:06:05,VALID,1008.44,VALID,0,VALID,97.4495,VALID,0,VALID,22.78,VALID,179,VALID,0,
2009-09-08, 03:07:05,VALID,1008.48,VALID,0,VALID,97.419,VALID,0,VALID,22.7783,VALID,179,VALID,0,
2009-09-08, 03:08:05,VALID,1008.48,VALID,0,VALID,97.4114,VALID,0,VALID,22.8173,VALID,179,VALID,0,
2009-09-08, 03:09:05,VALID,1008.5,VALID,0,VALID,97.4419,VALID,0,VALID,22.819,VALID,179,VALID,0,
2009-09-08, 03:10:05,VALID,1008.53,VALID,0,VALID,97.4648,VALID,0,VALID,22.78,VALID,179,VALID,0.447656,
2009-09-08, 03:11:05,VALID,1008.53,VALID,0,VALID,97.4648,VALID,0,VALID,22.7606,VALID,179,VALID,0.338672,
2009-09-08, 03:12:05,VALID,1008.54,VALID,0,VALID,97.4419,VALID,0,VALID,22.7606,VALID,179,VALID,0.242969,
2009-09-08, 03:13:05,VALID,1008.53,VALID,0,VALID,97.4114,VALID,0,VALID,22.819,VALID,179,VALID,0.295312,
2009-09-08, 03:14:05,VALID,1008.53,VALID,0,VALID,97.3961,VALID,0,VALID,22.8562,VALID,179,VALID,0.332422,
2009-09-08, 03:15:05,VALID,1008.53,VALID,0,VALID,97.3656,VALID,0,VALID,22.9359,VALID,179,VALID,0.110547,
2009-09-08, 03:16:05,VALID,1008.51,VALID,0,VALID,97.3732,VALID,0,VALID,22.9554,VALID,179,VALID,0,
2009-09-08, 03:17:05,VALID,1008.53,VALID,0,VALID,97.5105,VALID,0,VALID,22.858,VALID,179,VALID,0.138281,
2009-09-08, 03:18:05,VALID,1008.49,VALID,0,VALID,97.5181,VALID,0,VALID,22.7588,VALID,179,VALID,0.235156,
2009-09-08, 03:19:05,VALID,1008.49,VALID,0,VALID,97.4648,VALID,0,VALID,22.7783,VALID,179,VALID,0.148828,
2009-09-08, 03:20:05,VALID,1008.5,VALID,0,VALID,97.4114,VALID,0,VALID,22.8775,VALID,179,VALID,0.269141,
2009-09-08, 03:21:05,VALID,1008.47,VALID,0,VALID,97.419,VALID,0,VALID,22.8969,VALID,179,VALID,0.232422,
2009-09-08, 03:22:05,VALID,1008.48,VALID,0,VALID,97.4266,VALID,0,VALID,22.8969,VALID,179,VALID,0.18125,
2009-09-08, 03:23:05,VALID,1008.49,VALID,0,VALID,97.419,VALID,0,VALID,22.8969,VALID,179,VALID,0.0117188,
2009-09-08, 03:24:05,VALID,1008.51,VALID,0,VALID,97.4342,VALID,0,VALID,22.8775,VALID,179,VALID,0,
2009-09-08, 03:25:05,VALID,1008.49,VALID,0,VALID,97.5029,VALID,0,VALID,22.7783,VALID,179,VALID,0,
2009-09-08, 03:26:05,VALID,1008.51,VALID,0,VALID,97.5029,VALID,0,VALID,22.7394,VALID,179,VALID,0,
2009-09-08, 03:27:05,VALID,1008.53,VALID,0,VALID,97.5181,VALID,0,VALID,22.7004,VALID,179,VALID,0,
2009-09-08, 03:28:05,VALID,1008.52,VALID,0,VALID,97.48,VALID,0,VALID,22.7021,VALID,179,VALID,0,
2009-09-08, 03:29:05,VALID,1008.53,VALID,0,VALID,97.4419,VALID,0,VALID,22.7394,VALID,179,VALID,0,
2009-09-08, 03:30:05,VALID,1008.54,VALID,0,VALID,97.4495,VALID,0,VALID,22.7588,VALID,179,VALID,0,
2009-09-08, 03:31:05,VALID,1008.51,VALID,0,VALID,97.4648,VALID,0,VALID,22.7995,VALID,179,VALID,0,
2009-09-08, 03:32:05,VALID,1008.54,VALID,0,VALID,97.4342,VALID,0,VALID,22.8385,VALID,179,VALID,0,
2009-09-08, 03:33:05,VALID,1008.56,VALID,0,VALID,97.4419,VALID,0,VALID,22.8385,VALID,179,VALID,0,
2009-09-08, 03:34:05,VALID,1008.58,VALID,0,VALID,97.4342,VALID,0,VALID,22.8775,VALID,179,VALID,0,
2009-09-08, 03:35:05,VALID,1008.62,VALID,0,VALID,97.4419,VALID,0,VALID,22.858,VALID,179,VALID,0.336328,
2009-09-08, 03:36:05,VALID,1008.65,VALID,0,VALID,97.4724,VALID,0,VALID,22.858,VALID,179,VALID,0.217578,
2009-09-08, 03:37:05,VALID,1008.64,VALID,0,VALID,97.4495,VALID,0,VALID,22.8368,VALID,179,VALID,0.289844,
2009-09-08, 03:38:05,VALID,1008.66,VALID,0,VALID,97.4571,VALID,0,VALID,22.8173,VALID,83,VALID,0.461328,
2009-09-08, 03:39:05,VALID,1008.7,VALID,0,VALID,97.4495,VALID,0,VALID,22.8173,VALID,57,VALID,0.558984,
2009-09-08, 03:40:05,VALID,1008.73,VALID,0,VALID,97.4419,VALID,0,VALID,22.8368,VALID,55,VALID,0.450391,
2009-09-08, 03:41:05,VALID,1008.72,VALID,0,VALID,97.4495,VALID,0,VALID,22.8368,VALID,55,VALID,0.237109,
2009-09-08, 03:42:05,VALID,1008.77,VALID,0,VALID,97.4876,VALID,0,VALID,22.7978,VALID,55,VALID,0.0195313,
2009-09-08, 03:43:05,VALID,1008.76,VALID,0,VALID,97.48,VALID,0,VALID,22.7978,VALID,55,VALID,0,
2009-09-08, 03:44:05,VALID,1008.81,VALID,0,VALID,97.4571,VALID,0,VALID,22.7588,VALID,55,VALID,0,
2009-09-08, 03:45:05,VALID,1008.82,VALID,0,VALID,97.4724,VALID,0,VALID,22.78,VALID,55,VALID,0,
2009-09-08, 03:46:05,VALID,1008.84,VALID,0,VALID,97.4724,VALID,0,VALID,22.78,VALID,55,VALID,0,
2009-09-08, 03:47:05,VALID,1008.83,VALID,0,VALID,97.4648,VALID,0,VALID,22.7606,VALID,55,VALID,0,
2009-09-08, 03:48:05,VALID,1008.82,VALID,0,VALID,97.48,VALID,0,VALID,22.7394,VALID,55,VALID,0,
2009-09-08, 03:49:05,VALID,1008.82,VALID,0,VALID,97.48,VALID,0,VALID,22.7411,VALID,55,VALID,0,
2009-09-08, 03:50:05,VALID,1008.81,VALID,0,VALID,97.4876,VALID,0,VALID,22.7411,VALID,55,VALID,0,
2009-09-08, 03:51:05,VALID,1008.79,VALID,0,VALID,97.4724,VALID,0,VALID,22.7411,VALID,55,VALID,0,
2009-09-08, 03:52:05,VALID,1008.8,VALID,0,VALID,97.48,VALID,0,VALID,22.7411,VALID,55,VALID,0,
2009-09-08, 03:53:05,VALID,1008.86,VALID,0,VALID,97.48,VALID,0,VALID,22.7199,VALID,55,VALID,0,
2009-09-08, 03:54:05,VALID,1008.85,VALID,0,VALID,97.5029,VALID,0,VALID,22.7004,VALID,55,VALID,0,
2009-09-08, 03:55:05,VALID,1008.93,VALID,0,VALID,97.4953,VALID,0,VALID,22.7199,VALID,55,VALID,0,
2009-09-08, 03:56:05,VALID,1008.92,VALID,0,VALID,97.48,VALID,0,VALID,22.7199,VALID,55,VALID,0,
2009-09-08, 03:57:05,VALID,1008.93,VALID,0,VALID,97.4876,VALID,0,VALID,22.7216,VALID,55,VALID,0,